YU7OR-2 Weather Reports


time (UTC)temp
C
wind
direction
speed
KPH
gust
KPH
rain 1hr
cm
rain 24hr
cm
rain mn
cm
humidity
%
barometer
mb
20260504204823 16 0.0 0.0 0.00 0.00 0.00 55 1013.1
20260504204413 16 0.0 0.0 0.00 0.00 0.00 55 1013.1
20260504204008 16 0.0 0.0 0.00 0.00 0.00 55 1013.0
20260504203538 16 0.0 0.0 0.00 0.00 0.00 54 1013.2
20260504203133 16 0.0 0.0 0.00 0.00 0.00 54 1013.2
20260504202653 17 0.0 0.0 0.00 0.00 0.00 54 1013.2
20260504202218 17 0.0 0.0 0.00 0.00 0.00 54 1013.2
20260504201818 17 0.0 0.0 0.00 0.00 0.00 53 1013.1
20260504201353 17 0.0 0.0 0.00 0.00 0.00 52 1013.3
20260504200913 17 0.0 0.0 0.00 0.00 0.00 52 1013.2
20260504200443 17 0.0 0.0 0.00 0.00 0.00 52 1013.2
20260504200038 17 0.0 0.0 0.00 0.00 0.00 52 1013.2
20260504195548 17 0.0 0.0 0.00 0.00 0.00 52 1013.0
20260504195108 17 0.0 0.0 0.00 0.00 0.00 53 1013.3
20260504194613 17 0.0 0.0 0.00 0.00 0.00 53 1013.2
20260504194208 17 0.0 0.0 0.00 0.00 0.00 53 1013.2
20260504193728 17 0.0 0.0 0.00 0.00 0.00 52 1013.1
20260504193233 17 0.0 0.0 0.00 0.00 0.00 52 1013.2
20260504192823 17 159 0.0 3.2 0.00 0.00 0.00 52 1013.0
20260504192357 17 112 0.0 3.2 0.00 0.00 0.00 52 1013.0
20260504191933 18 120 0.0 3.2 0.00 0.00 0.00 51 1013.0
20260504191523 18 0.0 0.0 0.00 0.00 0.00 51 1013.1
20260504191058 18 0.0 0.0 0.00 0.00 0.00 52 1013.0
20260504190558 18 0.0 0.0 0.00 0.00 0.00 53 1013.2
20260504190143 18 0.0 0.0 0.00 0.00 0.00 53 1013.2
20260504185648 18 0.0 0.0 0.00 0.00 0.00 53 1013.2
20260504185148 18 0.0 0.0 0.00 0.00 0.00 52 1013.2
20260504184748 18 0.0 0.0 0.00 0.00 0.00 52 1013.2
20260504184303 18 0.0 0.0 0.00 0.00 0.00 51 1013.1
20260504183833 18 0.0 0.0 0.00 0.00 0.00 50 1013.1
20260504183428 19 0.0 0.0 0.00 0.00 0.00 50 1013.2
20260504182953 19 0.0 0.0 0.00 0.00 0.00 48 1013.3
20260504182538 19 0.0 0.0 0.00 0.00 0.00 48 1013.1
20260504182108 19 0.0 0.0 0.00 0.00 0.00 48 1013.1
20260504181708 20 0.0 0.0 0.00 0.00 0.00 46 1013.0
20260504181233 20 97 0.0 3.2 0.00 0.00 0.00 47 1013.0
20260504180817 20 111 0.0 3.2 0.00 0.00 0.00 46 1013.1
20260504180356 21 0.0 0.0 0.00 0.00 0.00 46 1013.2
20260504175916 21 118 0.0 3.2 0.00 0.00 0.00 46 1013.1
20260504175438 21 97 0.0 3.2 0.00 0.00 0.00 46 1013.2
20260504175008 22 75 0.0 8.0 0.00 0.00 0.00 46 1013.2
20260504174508 22 100 0.0 3.2 0.00 0.00 0.00 45 1013.3
20260504174048 22 0.0 0.0 0.00 0.00 0.00 44 1013.0
20260504173638 22 0.0 0.0 0.00 0.00 0.00 44 1013.0
20260504173233 22 0.0 0.0 0.00 0.00 0.00 45 1013.0
20260504172758 23 0.0 0.0 0.00 0.00 0.00 45 1012.9
20260504172358 23 0.0 0.0 0.00 0.00 0.00 45 1012.9
20260504171918 23 99 0.0 3.2 0.00 0.00 0.00 44 1013.2
20260504171443 23 110 0.0 3.2 0.00 0.00 0.00 45 1013.0
20260504171033 23 101 0.0 3.2 0.00 0.00 0.00 45 1013.1
20260504170533 23 0.0 0.0 0.00 0.00 0.00 45 1013.1
20260504170118 23 0.0 0.0 0.00 0.00 0.00 45 1013.1
20260504160253 25 98 0.0 12.9 0.00 0.00 0.00 44 1013.4
20260504150913 25 72 0.0 8.0 0.00 0.00 0.00 44 1013.8
20260504150418 25 68 0.0 12.9 0.00 0.00 0.00 44 1013.9
20260504140928 25 123 0.0 3.2 0.00 0.00 0.00 43 1014.4
20260504140513 25 68 0.0 12.9 0.00 0.00 0.00 44 1014.6
20260504130658 24 136 0.0 12.9 0.00 0.00 0.00 44 1015.0
20260504130228 24 67 0.0 12.9 0.00 0.00 0.00 44 1015.2
20260504110538 23 69 0.0 16.1 0.00 0.00 0.00 44 1016.4
20260504110135 23 69 0.0 16.1 0.00 0.00 0.00 44 1016.4
20260504100608 22 71 0.0 12.9 0.00 0.00 0.00 46 1017.0
20260504100148 22 67 0.0 16.1 0.00 0.00 0.00 46 1017.0
20260504081653 21 125 0.0 8.0 0.00 0.00 0.00 46 1017.4
20260504081213 20 68 0.0 12.9 0.00 0.00 0.00 46 1017.5
20260504080758 20 119 0.0 8.0 0.00 0.00 0.00 47 1017.5
20260504080318 20 98 0.0 8.0 0.00 0.00 0.00 46 1017.6
20260504070353 18 96 0.0 8.0 0.00 0.00 0.00 48 1017.6
20260504060148 15 0.0 0.0 0.00 0.00 0.00 48 1017.9
20260504050653 13 0.0 0.0 0.00 0.00 0.00 53 1017.7
20260504050243 12 0.0 0.0 0.00 0.00 0.00 54 1017.5
20260504045758 12 0.0 0.0 0.00 0.00 0.00 54 1017.4
20260504045258 11 0.0 0.0 0.00 0.00 0.00 56 1017.3
20260504044833 11 0.0 0.0 0.00 0.00 0.00 58 1017.1
20260504044354 11 0.0 0.0 0.00 0.00 0.00 56 1017.0
20260504043858 11 0.0 0.0 0.00 0.00 0.00 54 1016.8
20260504043423 11 0.0 0.0 0.00 0.00 0.00 55 1016.6
20260504042958 10 0.0 0.0 0.00 0.00 0.00 55 1016.3
20260504042518 10 0.0 0.0 0.00 0.00 0.00 54 1016.3
20260504042023 10 0.0 0.0 0.00 0.00 0.00 56 1015.9
20260504041603 9 0.0 0.0 0.00 0.00 0.00 58 1015.8
20260504041158 9 0.0 0.0 0.00 0.00 0.00 58 1015.8
20260504040730 8 0.0 0.0 0.00 0.00 0.00 59 1015.9
20260504040313 8 0.0 0.0 0.00 0.00 0.00 61 1015.6
20260504035848 8 0.0 0.0 0.00 0.00 0.00 62 1015.6
20260504035413 8 0.0 0.0 0.00 0.00 0.00 62 1015.4
20260504034923 8 0.0 0.0 0.00 0.00 0.00 63 1015.5
20260504034423 8 0.0 0.0 0.00 0.00 0.00 63 1015.6
20260504033953 8 0.0 0.0 0.00 0.00 0.00 63 1015.2
20260504033533 8 0.0 0.0 0.00 0.00 0.00 61 1015.2
20260504033048 8 0.0 0.0 0.00 0.00 0.00 61 1015.6
20260504032548 8 0.0 0.0 0.00 0.00 0.00 62 1015.5
20260504032103 8 0.0 0.0 0.00 0.00 0.00 64 1015.2
20260504031648 8 0.0 0.0 0.00 0.00 0.00 64 1015.2
20260504031233 8 0.0 0.0 0.00 0.00 0.00 63 1015.5
20260504030758 8 0.0 0.0 0.00 0.00 0.00 64 1015.4
20260504030328 9 0.0 0.0 0.00 0.00 0.00 63 1015.4
20260504025923 9 0.0 0.0 0.00 0.00 0.00 61 1015.4
20260504025523 9 0.0 0.0 0.00 0.00 0.00 60 1015.6
20260504025043 9 0.0 0.0 0.00 0.00 0.00 60 1015.5
20260504024643 9 0.0 0.0 0.00 0.00 0.00 60 1015.5
20260504024143 9 0.0 0.0 0.00 0.00 0.00 60 1015.3
20260504023728 10 0.0 0.0 0.00 0.00 0.00 60 1015.2
20260504023248 10 0.0 0.0 0.00 0.00 0.00 60 1015.5
20260504022748 10 0.0 0.0 0.00 0.00 0.00 59 1015.4
20260504022258 10 0.0 0.0 0.00 0.00 0.00 58 1015.3
20260504021843 10 0.0 0.0 0.00 0.00 0.00 58 1015.4
20260504021348 10 0.0 0.0 0.00 0.00 0.00 58 1015.4
20260504020938 10 0.0 0.0 0.00 0.00 0.00 58 1015.5
20260504020513 10 0.0 0.0 0.00 0.00 0.00 58 1015.5
20260504020048 10 0.0 0.0 0.00 0.00 0.00 58 1015.5
20260504015608 10 0.0 0.0 0.00 0.00 0.00 58 1015.5
20260504015148 10 0.0 0.0 0.00 0.00 0.00 58 1015.5
20260504014653 10 0.0 0.0 0.00 0.00 0.00 59 1015.5
20260504014243 10 0.0 0.0 0.00 0.00 0.00 59 1015.4
20260504013839 10 0.0 0.0 0.00 0.00 0.00 60 1015.4
20260504013418 10 0.0 0.0 0.00 0.00 0.00 58 1015.5
20260504012953 10 0.0 0.0 0.00 0.00 0.00 58 1015.4
20260504012514 10 0.0 0.0 0.00 0.00 0.00 58 1015.5
20260504012053 10 89 0.0 3.2 0.00 0.00 0.00 58 1015.6
20260504011603 10 75 0.0 3.2 0.00 0.00 0.00 60 1015.6
20260504011143 10 75 0.0 3.2 0.00 0.00 0.00 60 1015.6
20260504010728 10 0.0 0.0 0.00 0.00 0.00 58 1015.7
20260504010303 10 0.0 0.0 0.00 0.00 0.00 59 1015.7
20260504005853 10 0.0 0.0 0.00 0.00 0.00 59 1015.7
20260504005423 10 0.0 0.0 0.00 0.00 0.00 58 1015.6
20260504005023 10 0.0 0.0 0.00 0.00 0.00 58 1015.6
20260504004543 10 0.0 0.0 0.00 0.00 0.00 59 1015.7
20260504004058 10 0.0 0.0 0.00 0.00 0.00 59 1015.6
20260504003615 10 0.0 0.0 0.00 0.00 0.00 59 1015.6
20260504003118 10 0.0 0.0 0.00 0.00 0.00 59 1015.7
20260504002713 10 0.0 0.0 0.00 0.00 0.00 59 1015.7
20260504002243 10 0.0 0.0 0.00 0.00 0.00 60 1015.9
20260504001828 10 0.0 0.0 0.00 0.00 0.00 60 1015.7
20260504001428 10 0.0 0.0 0.00 0.00 0.00 59 1015.8
20260504001028 9 0.0 0.0 0.00 0.00 0.00 58 1015.8
20260504000608 9 0.0 0.0 0.00 0.00 0.00 58 1015.8
20260504000158 9 0.0 0.0 0.00 0.00 0.00 60 1015.9
20260503235738 9 0.0 0.0 0.00 0.00 0.00 60 1015.9
20260503235243 10 0.0 0.0 0.00 0.00 0.00 59 1016.1
20260503234823 10 0.0 0.0 0.00 0.00 0.00 59 1016.1
20260503234343 10 0.0 0.0 0.00 0.00 0.00 60 1016.1
20260503233853 10 0.0 0.0 0.00 0.00 0.00 59 1016.1
20260503233403 10 0.0 0.0 0.00 0.00 0.00 59 1016.0
20260503232923 10 0.0 0.0 0.00 0.00 0.00 58 1016.1
20260503232503 10 0.0 0.0 0.00 0.00 0.00 57 1016.0
20260503232003 10 0.0 0.0 0.00 0.00 0.00 57 1016.1
20260503231503 10 0.0 0.0 0.00 0.00 0.00 56 1016.3
20260503231048 10 0.0 0.0 0.00 0.00 0.00 57 1016.3
20260503230558 10 0.0 0.0 0.00 0.00 0.00 57 1016.3
20260503230123 10 0.0 0.0 0.00 0.00 0.00 57 1016.3
20260503225648 11 0.0 0.0 0.00 0.00 0.00 57 1016.3
20260503225213 11 0.0 0.0 0.00 0.00 0.00 56 1016.4
20260503224737 11 0.0 0.0 0.00 0.00 0.00 57 1016.3
20260503224323 11 0.0 0.0 0.00 0.00 0.00 55 1016.3
20260503223838 11 0.0 0.0 0.00 0.00 0.00 55 1016.3
20260503223408 11 0.0 0.0 0.00 0.00 0.00 54 1016.2
20260503222913 11 93 0.0 3.2 0.00 0.00 0.00 54 1016.1
20260503222453 11 108 0.0 3.2 0.00 0.00 0.00 55 1016.3
20260503222038 11 0.0 0.0 0.00 0.00 0.00 55 1016.3
20260503221549 11 90 0.0 3.2 0.00 0.00 0.00 55 1016.1
20260503221138 11 90 0.0 3.2 0.00 0.00 0.00 55 1016.1
20260503220723 11 0.0 0.0 0.00 0.00 0.00 54 1016.3
20260503220313 12 0.0 0.0 0.00 0.00 0.00 53 1016.3
20260503215823 12 0.0 0.0 0.00 0.00 0.00 53 1016.4
20260503215358 12 93 0.0 3.2 0.00 0.00 0.00 54 1016.3
20260503214908 12 0.0 0.0 0.00 0.00 0.00 54 1016.3
20260503214423 12 0.0 0.0 0.00 0.00 0.00 53 1016.1
20260503213943 12 0.0 0.0 0.00 0.00 0.00 53 1016.3
20260503213538 12 0.0 0.0 0.00 0.00 0.00 53 1016.1
20260503213103 12 0.0 0.0 0.00 0.00 0.00 53 1016.3
20260503212603 12 0.0 0.0 0.00 0.00 0.00 53 1016.3
20260503212133 12 0.0 0.0 0.00 0.00 0.00 53 1016.3
20260503211703 12 0.0 0.0 0.00 0.00 0.00 53 1016.2
20260503211235 12 0.0 0.0 0.00 0.00 0.00 53 1016.2
20260503210803 12 0.0 0.0 0.00 0.00 0.00 54 1016.3
20260503210313 12 0.0 0.0 0.00 0.00 0.00 55 1016.3
20260503205908 12 0.0 0.0 0.00 0.00 0.00 53 1016.3
20260503205443 12 0.0 0.0 0.00 0.00 0.00 53 1016.3